When you browse on this site, cookies collect data to enhance your experience and personalize the content and advertising you see.
Visit our Privacy Policy to learn more. By continuing to use the site, you agree to this use of cookies and data.
  • In Czech Republic
  • List of Countries
  • For 7 days
  • Water Temperature
  • Satellite Maps
  • Weather Map
  • Weather Widgets
  • user-avatar
    Login

    Hourly Weather Wasco

    Today, 22 February, Friday

    Time Temperature Precipitation Wind Pressure Humidity
    00:00 +3°C° 0 mm 3 mps 750 mmHg 74%
    01:00 +3°C° 0 mm 2 mps 750 mmHg 74%
    02:00 +3°C° 0 mm 2 mps 751 mmHg 74%
    03:00 +3°C° 0 mm 2 mps 751 mmHg 74%
    04:00 +3°C° 0 mm 1 mps 752 mmHg 74%
    05:00 +3°C° 0 mm 1 mps 752 mmHg 75%
    06:00 +3°C° 0 mm 1 mps 753 mmHg 77%
    07:00 +3°C° 0 mm 1 mps 753 mmHg 79%
    08:00 +4°C° 0 mm 1 mps 754 mmHg 75%
    09:00 +6°C° 0 mm 1 mps 754 mmHg 71%
    10:00 +7°C° 0 mm 1 mps 754 mmHg 67%
    11:00 +8°C° 0 mm 1 mps 754 mmHg 62%
    12:00 +8°C° 0 mm 2 mps 754 mmHg 58%
    13:00 +10°C° 0 mm 2 mps 754 mmHg 54%
    14:00 +10°C° 0 mm 2 mps 754 mmHg 51%
    15:00 +12°C° 0 mm 2 mps 754 mmHg 49%
    16:00 +12°C° 0 mm 2 mps 754 mmHg 47%
    17:00 +10°C° 0 mm 1 mps 755 mmHg 52%
    18:00 +9°C° 0 mm 1 mps 756 mmHg 58%
    19:00 +7°C° 0 mm 0 mps 757 mmHg 63%
    20:00 +7°C° 0 mm 1 mps 757 mmHg 63%
    21:00 +7°C° 0 mm 1 mps 758 mmHg 64%
    22:00 +6°C° 0 mm 1 mps 758 mmHg 64%
    23:00 +6°C° 0 mm 1 mps 759 mmHg 63%

    Tomorrow, 23 February, Saturday

    Time Temperature Precipitation Wind Pressure Humidity
    00:00 +5°C° 0 mm 1 mps 759 mmHg 62%
    01:00 +5°C° 0 mm 1 mps 759 mmHg 61%
    02:00 +5°C° 0 mm 1 mps 759 mmHg 61%
    03:00 +4°C° 0 mm 1 mps 759 mmHg 62%
    04:00 +4°C° 0 mm 1 mps 759 mmHg 63%
    05:00 +4°C° 0 mm 1 mps 760 mmHg 63%
    06:00 +4°C° 0 mm 1 mps 760 mmHg 63%
    07:00 +4°C° 0 mm 1 mps 760 mmHg 64%
    08:00 +6°C° 0 mm 1 mps 760 mmHg 58%
    09:00 +8°C° 0 mm 1 mps 760 mmHg 53%
    10:00 +9°C° 0 mm 0 mps 760 mmHg 47%
    11:00 +12°C° 0 mm 1 mps 760 mmHg 42%
    12:00 +13°C° 0 mm 1 mps 759 mmHg 37%
    13:00 +14°C° 0 mm 1 mps 759 mmHg 33%
    14:00 +14°C° 0 mm 1 mps 759 mmHg 32%
    15:00 +15°C° 0 mm 1 mps 758 mmHg 31%
    16:00 +15°C° 0 mm 1 mps 758 mmHg 31%
    17:00 +13°C° 0 mm 1 mps 758 mmHg 36%
    18:00 +11°C° 0 mm 1 mps 759 mmHg 41%
    19:00 +10°C° 0 mm 1 mps 759 mmHg 46%
    20:00 +9°C° 0 mm 1 mps 760 mmHg 45%
    21:00 +8°C° 0 mm 2 mps 760 mmHg 45%
    22:00 +7°C° 0 mm 2 mps 760 mmHg 44%
    23:00 +7°C° 0 mm 2 mps 760 mmHg 44%

    Day after tomorrow, 24 February, Sunday

    Time Temperature Precipitation Wind Pressure Humidity
    00:00 +7°C° 0 mm 2 mps 760 mmHg 44%
    01:00 +7°C° 0 mm 2 mps 760 mmHg 44%
    02:00 +6°C° 0 mm 2 mps 759 mmHg 45%
    03:00 +6°C° 0 mm 2 mps 759 mmHg 45%
    04:00 +6°C° 0 mm 2 mps 758 mmHg 46%
    05:00 +7°C° 0 mm 1 mps 758 mmHg 48%
    06:00 +7°C° 0 mm 1 mps 758 mmHg 49%
    07:00 +7°C° 0 mm 1 mps 758 mmHg 51%
    08:00 +9°C° 0 mm 1 mps 758 mmHg 46%
    09:00 +11°C° 0 mm 1 mps 758 mmHg 41%
    10:00 +13°C° 0 mm 1 mps 758 mmHg 37%
    11:00 +14°C° 0 mm 1 mps 758 mmHg 35%
    12:00 +16°C° 0 mm 1 mps 757 mmHg 34%
    13:00 +18°C° 0 mm 1 mps 756 mmHg 33%
    14:00 +18°C° 0 mm 1 mps 756 mmHg 33%
    15:00 +18°C° 0 mm 1 mps 756 mmHg 34%
    16:00 +18°C° 0 mm 1 mps 755 mmHg 34%
    17:00 +16°C° 0 mm 1 mps 755 mmHg 39%
    18:00 +14°C° 0 mm 1 mps 756 mmHg 44%
    19:00 +12°C° 0 mm 2 mps 756 mmHg 49%
    20:00 +12°C° 0 mm 2 mps 756 mmHg 49%
    21:00 +10°C° 0 mm 2 mps 756 mmHg 49%
    22:00 +10°C° 0 mm 2 mps 757 mmHg 49%
    23:00 +10°C° 0 mm 2 mps 756 mmHg 50%

    25 February, Monday

    Time Temperature Precipitation Wind Pressure Humidity
    00:00 +9°C° 0 mm 2 mps 756 mmHg 50%
    01:00 +9°C° 0 mm 2 mps 756 mmHg 51%
    02:00 +9°C° 0 mm 2 mps 756 mmHg 50%
    03:00 +9°C° 0 mm 2 mps 755 mmHg 50%
    04:00 +9°C° 0 mm 1 mps 755 mmHg 50%
    05:00 +9°C° 0 mm 1 mps 755 mmHg 50%
    06:00 +9°C° 0 mm 1 mps 755 mmHg 50%
    07:00 +8°C° 0 mm 2 mps 756 mmHg 51%
    08:00 +12°C° 0 mm 2 mps 755 mmHg 45%
    09:00 +14°C° 0 mm 2 mps 755 mmHg 40%
    10:00 +17°C° 0 mm 2 mps 755 mmHg 34%
    11:00 +19°C° 0 mm 1 mps 755 mmHg 32%
    12:00 +20°C° 0 mm 1 mps 755 mmHg 29%
    13:00 +22°C° 0 mm 1 mps 755 mmHg 27%
    14:00 +22°C° 0 mm 1 mps 754 mmHg 27%
    15:00 +22°C° 0 mm 1 mps 754 mmHg 26%
    16:00 +22°C° 0 mm 1 mps 754 mmHg 26%
    17:00 +20°C° 0 mm 1 mps 754 mmHg 30%
    18:00 +17°C° 0 mm 2 mps 755 mmHg 34%
    19:00 +15°C° 0 mm 2 mps 755 mmHg 38%
    20:00 +14°C° 0 mm 2 mps 755 mmHg 39%
    21:00 +13°C° 0 mm 2 mps 755 mmHg 40%
    22:00 +13°C° 0 mm 2 mps 756 mmHg 41%
    23:00 +12°C° 0 mm 2 mps 755 mmHg 40%

    26 February, Tuesday

    Time Temperature Precipitation Wind Pressure Humidity
    00:00 +12°C° 0 mm 2 mps 755 mmHg 40%
    01:00 +10°C° 0 mm 2 mps 755 mmHg 40%
    02:00 +10°C° 0 mm 2 mps 755 mmHg 41%
    03:00 +11°C° 0 mm 1 mps 755 mmHg 41%
    04:00 +11°C° 0 mm 1 mps 755 mmHg 42%
    05:00 +11°C° 0 mm 1 mps 755 mmHg 43%
    06:00 +11°C° 0 mm 1 mps 756 mmHg 45%
    07:00 +11°C° 0 mm 1 mps 756 mmHg 46%
    08:00 +13°C° 0 mm 1 mps 756 mmHg 41%
    09:00 +14°C° 0 mm 0 mps 756 mmHg 37%
    10:00 +16°C° 0 mm 0 mps 756 mmHg 32%
    11:00 +17°C° 0 mm 0 mps 755 mmHg 30%
    12:00 +21°C° 0 mm 1 mps 755 mmHg 28%
    13:00 +22°C° 0 mm 1 mps 755 mmHg 26%
    14:00 +22°C° 0 mm 1 mps 754 mmHg 27%
    15:00 +22°C° 0 mm 1 mps 754 mmHg 27%
    16:00 +22°C° 0 mm 1 mps 754 mmHg 27%
    17:00 +21°C° 0 mm 1 mps 754 mmHg 30%
    18:00 +19°C° 0 mm 1 mps 755 mmHg 32%
    19:00 +18°C° 0 mm 1 mps 755 mmHg 35%
    20:00 +18°C° 0 mm 1 mps 756 mmHg 37%
    21:00 +16°C° 0 mm 1 mps 756 mmHg 39%
    22:00 +16°C° 0 mm 1 mps 756 mmHg 42%
    23:00 +15°C° 0 mm 1 mps 756 mmHg 44%

    27 February, Wednesday

    Time Temperature Precipitation Wind Pressure Humidity
    00:00 +15°C° 0 mm 2 mps 756 mmHg 47%
    01:00 +14°C° 0 mm 2 mps 756 mmHg 50%
    02:00 +13°C° 0 mm 1 mps 756 mmHg 52%
    03:00 +13°C° 0 mm 1 mps 756 mmHg 55%
    04:00 +11°C° 0 mm 0 mps 756 mmHg 58%
    05:00 +11°C° 0 mm 0 mps 757 mmHg 58%
    06:00 +11°C° 0 mm 0 mps 757 mmHg 59%
    07:00 +12°C° 0 mm 1 mps 757 mmHg 59%
    08:00 +14°C° 0 mm 1 mps 757 mmHg 53%
    09:00 +16°C° 0 mm 1 mps 757 mmHg 47%
    10:00 +19°C° 0 mm 1 mps 757 mmHg 42%
    11:00 +20°C° 0 mm 1 mps 757 mmHg 40%
    12:00 +21°C° 0 mm 1 mps 757 mmHg 38%
    13:00 +22°C° 0 mm 1 mps 756 mmHg 36%
    14:00 +22°C° 0 mm 1 mps 756 mmHg 35%
    15:00 +23°C° 0 mm 2 mps 756 mmHg 35%
    16:00 +23°C° 0 mm 2 mps 756 mmHg 35%
    17:00 +21°C° 0 mm 1 mps 756 mmHg 40%
    18:00 +19°C° 0 mm 1 mps 756 mmHg 45%
    19:00 +16°C° 0 mm 1 mps 756 mmHg 50%
    20:00 +15°C° 0 mm 1 mps 757 mmHg 51%
    21:00 +15°C° 0 mm 1 mps 757 mmHg 52%
    22:00 +14°C° 0 mm 1 mps 757 mmHg 54%
    23:00 +14°C° 0 mm 1 mps 757 mmHg 54%
    Show more